Showing default

LEMUR 2 HUBBLE-4, 64565

Orbit data source: Space-Track

LEMUR 2 HUBBLE-4, 64565 is an American payload satellite in SSO that was launched on Mon, 23 Jun 2025 UTC via an FALCON 9 launch vehicle from the Air Force Western Test Range (AFWTR). Payload-class satellites include a variety of spacecraft equipped with specific instruments for various scientific and technological missions. These include communications satellites like Starlink; space stations such as the ISS; scientific satellites like the Hubble; Earth observation satellites from companies like Planet Labs, Umbra, and HawkEye 360; GPS; miniature CubeSats for education and research; and military/defense satellites.

Loading next visibility...
Identifier
64565, 2025-135AP
Orbit
SSO
Country
Flag of USUS
Related business
Manufacturer
Spire/Glasgow
Mission
Operational Commercial Communications
Bus & Motor
CUBESAT 16U, Unknown motor
Mass
22 kg wet, 22 kg dry
Launch date (UTC)
2025-06-23 (8 months ago)
Launch vehicle
FALCON 9
Launch site
Air Force Western Test Range (AFWTR)
Object type
Payload
Rocket body
Debris
Shape & HBR
Box + 4 Pan, 1.4 m
Radar Cross Section
0.326 m², Medium (>0.1 m² and < 1m²)

Expand to show TLE details & history
Last TLE update: 12 hours ago

TLE from 12 hours ago
0 LEMUR 2 HUBBLE-4
1 64565U 25135AP  26062.31909743  .00002829  00000-0  27858-3 0  9998
2 64565  97.7571 177.6059 0001167 279.3149  80.7938 14.92855983 38076
Epoch: 2026-03-03T07:39Z
TLE epoch observation values (Epoch: 2026-03-03T07:39:30.017Z)
Latitude
-0.00009°
Longitude
-98.36902°
Altitude
591.949 km
Speed
7.564 km/s
True Right ascension
11h 50m 25s
True Declination
0° 00' 00"
Sunlit
Object was in full shadow at epoch
Visualization orbit readout
Latitude
Unknown
Longitude
Unknown
Altitude
Unknown
Speed
Unknown
Apparent Right ascension
Unknown
Apparent Declination
Unknown
Sunlit
N/A
Visualization observer readout
Local Sidereal Time
23:37:49
Azimuth
Unknown
Elevation
Unknown
Doppler factor
Unknown
Orbital elements
Apogee altitude
586.866 km
Perigee altitude
585.24 km
Semi-major axis
6,964.19 km
Eccentricity
0.00012
Inclination
97.7571°
RAAN
177.6059°
Arg. of periapsis
279.3149°
True anomaly
80.807°
Mean anomaly
80.7938°
Eccentric anomaly
80.8004°
Mean motion
3.73454 °/min
Orbital period
96.4 mins
BSTAR
0.00027858
Loading maneuver chart data...
Computing Atmospheric mass density...
Loading historical data...
Loading historical data...
Loading historical data...
Loading historical data...
Loading historical data...
Loading historical data...
Loading historical data...

Documentation

Showing up to 5 results
|